"America/Chicago Time","Lifetime Energy (kWh)","Power (W)","AC Volts RMS (V) ","AC Amps RMS (mA)","Grid Frequency (Hz)","Inverter Temperature (C)"
"09/02/12 10:26:07","182.1149","129.1","217.29","600","60.03","32"
"09/02/12 10:31:06","182.125","130.5","216.95","601","60.0","33"
"09/02/12 10:36:06","182.1353","133.4","217.4","617","60.03","33"
"09/02/12 10:41:06","182.1457","133.5","216.97","619","60.03","34"
"09/02/12 10:46:06","182.1562","136.9","216.98","633","60.0","34"
"09/02/12 10:51:07","182.1669","137.7","217.82","634","60.03","35"
"09/02/12 10:56:06","182.1776","139.6","216.99","642","60.03","35"
"09/02/12 11:01:06","182.1885","140.7","216.73","648","60.0","36"
"09/02/12 11:06:06","182.1996","142.0","216.4","657","60.03","36"
"09/02/12 11:11:06","182.2106","143.7","217.09","663","60.03","37"
"09/02/12 11:16:07","182.2219","143.2","217.67","657","60.0","37"
"09/02/12 11:21:07","182.233","139.1","217.32","642","60.03","37"
"09/02/12 11:26:05","182.2439","140.5","217.46","646","60.03","37"
"09/02/12 11:31:06","182.255","147.2","216.87","675","60.0","37"
"09/02/12 11:36:06","182.2665","144.2","217.4","665","60.0","37"
"09/02/12 11:41:07","182.2778","148.8","217.65","681","60.03","37"
"09/02/12 11:46:07","182.2892","143.5","217.9","660","60.03","37"
"09/02/12 11:51:07","182.3001","141.0","216.82","646","60.03","37"
"09/02/12 11:56:05","182.3103","131.5","217.21","614","60.03","37"
"09/02/12 12:01:05","182.321","131.8","216.67","611","60.03","37"
"09/02/12 12:06:07","182.3307","119.4","215.98","560","60.03","37"
"09/02/12 12:11:06","182.3401","127.5","216.56","593","60.0","37"
"09/02/12 12:16:06","182.3507","151.1","217.02","689","60.03","37"
"09/02/12 12:21:06","182.3618","138.9","216.49","645","60.03","37"
"09/02/12 12:26:05","182.3729","143.6","217.65","658","60.0","38"
"09/02/12 12:31:07","182.3845","143.8","217.05","663","60.03","38"
"09/02/12 12:36:06","182.3959","142.6","217.37","658","60.0","38"
"09/02/12 12:41:06","182.4049","84.6","215.25","412","60.03","37"
"09/02/12 12:46:06","182.4133","145.9","216.78","667","60.0","37"
"09/02/12 12:51:06","182.4242","139.9","216.39","645","60.03","38"
"09/02/12 12:56:06","182.4354","146.7","216.82","674","60.03","38"
"09/02/12 13:01:05","182.4467","147.6","216.64","680","60.03","38"
"09/02/12 13:06:06","182.4582","148.3","216.75","681","60.03","39"
"09/02/12 13:11:05","182.4694","144.3","216.92","668","60.0","39"
"09/02/12 13:16:07","182.4811","149.8","216.93","687","60.03","40"
"09/02/12 13:21:07","182.4926","147.4","217.2","678","60.03","40"
"09/02/12 13:26:06","182.504","145.9","217.56","670","60.03","41"
"09/02/12 13:31:06","182.5153","145.3","217.3","669","60.0","41"
"09/02/12 13:36:05","182.5265","142.1","217.04","657","60.03","41"
"09/02/12 13:41:06","182.5374","136.1","217.32","626","60.0","41"
"09/02/12 13:46:07","182.5475","120.4","215.87","563","60.0","41"
"09/02/12 13:51:06","182.557","121.7","216.41","569","60.03","40"
"09/02/12 13:56:05","182.5676","139.6","217.96","642","60.03","40"
"09/02/12 14:01:06","182.5785","140.1","216.97","653","60.03","41"
"09/02/12 14:06:05","182.5894","137.6","217.37","635","60.07","41"
"09/02/12 14:11:07","182.5999","132.2","216.16","615","60.03","41"
"09/02/12 14:16:06","182.6098","125.9","216.74","583","60.03","40"
"09/02/12 14:21:07","182.6198","133.1","217.32","609","60.0","41"
"09/02/12 14:26:07","182.6302","132.5","217.11","617","60.0","41"
"09/02/12 14:31:06","182.6404","127.5","216.2","596","60.0","41"
"09/02/12 14:36:07","182.6502","123.1","216.61","570","60.0","41"
"09/02/12 14:41:07","182.6594","122.3","216.46","575","60.03","40"
"09/02/12 14:46:06","182.6692","125.7","215.8","583","60.03","40"
"09/02/12 14:51:06","182.6784","106.0","215.31","503","60.0","40"
"09/02/12 14:56:07","182.6871","125.2","216.06","583","60.03","40"
"09/02/12 15:01:07","182.6967","121.3","216.19","568","60.07","40"
"09/02/12 15:06:05","182.706","116.7","215.91","552","60.07","40"
"09/02/12 15:11:07","182.7152","116.8","216.53","549","60.0","40"
"09/02/12 15:16:05","182.7242","115.2","216.13","538","60.03","39"
"09/02/12 15:21:06","182.7331","112.1","215.18","529","60.0","39"
"09/02/12 15:26:05","182.7418","111.4","215.43","526","60.0","39"
"09/02/12 15:31:06","182.7503","107.7","215.71","509","60.03","39"
"09/02/12 15:36:05","182.7585","106.4","217.32","501","60.0","38"
"09/02/12 15:41:06","182.7667","102.6","216.06","490","60.03","38"
"09/02/12 15:46:06","182.7746","101.6","216.15","482","60.03","38"
"09/02/12 15:51:05","182.7823","97.9","214.85","469","60.0","38"
"09/02/12 15:56:06","182.7898","92.7","215.18","446","60.03","38"
"09/02/12 16:01:07","182.7965","77.4","215.53","382","60.0","38"
"09/02/12 16:06:05","182.8028","79.3","215.1","389","60.03","37"
"09/02/12 16:11:07","182.8092","83.8","215.18","410","60.03","37"
"09/02/12 16:16:06","182.8155","76.1","215.03","377","60.03","36"
"09/02/12 16:21:06","182.8203","51.5","214.52","249","60.0","36"
"09/02/12 16:26:07","182.8226","26.3","213.96","47","60.0","35"
"09/02/12 16:31:07","182.824","14.9","213.78","55","60.0","33"
"09/02/12 16:36:05","182.8261","14.7","214.09","286","60.03","32"
"09/02/12 16:41:06","182.828","32.5","213.76","206","60.07","32"
"09/02/12 16:46:05","182.8299","26.2","214.4","266","60.03","31"
"09/02/12 16:51:06","182.8318","16.5","214.95","38","60.03","30"
"09/02/12 16:56:05","182.8341","44.2","214.03","290","60.03","30"
"09/02/12 17:01:06","182.838","67.9","214.77","339","60.03","30"
"09/02/12 17:06:06","182.8433","66.6","215.13","336","60.03","31"
"09/02/12 17:11:07","182.8482","60.6","214.76","310","60.0","31"
"09/02/12 17:16:07","182.8522","47.7","214.43","359","60.03","32"
"09/02/12 17:21:07","182.856","51.7","214.39","369","60.03","32"
"09/02/12 17:26:06","182.8592","42.7","214.24","329","60.0","32"
"09/02/12 17:31:06","182.862","29.9","213.39","125","60.03","31"
"09/02/12 17:36:05","182.8645","34.6","213.35","106","60.03","31"
"09/02/12 17:41:05","182.8666","34.7","213.83","121","60.03","31"
"09/02/12 17:46:05","182.8685","16.0","213.54","53","60.0","31"
"09/02/12 17:51:07","182.8701","23.6","213.62","239","60.03","30"
"09/02/12 17:56:06","182.8715","13.0","213.74","111","60.0","30"
"09/02/12 18:01:06","182.8727","13.0","212.99","86","60.0","30"
"09/02/12 18:06:05","182.8736","12.4","214.24","20","60.03","29"
"09/02/12 18:11:06","182.8742","0.0","213.58","0","60.0","29"
"09/02/12 18:16:06","182.8747","11.6","214.08","1","60.0","29"
"09/02/12 18:21:07","182.875","7.3","212.85","0","60.03","28"
"09/02/12 18:46:06","182.8758","0.0","211.88","0","60.03","27"
"09/02/12 18:51:06","182.8761","10.6","212.69","0","60.03","26"
"09/02/12 18:56:06","182.8763","7.4","212.93","0","60.03","26"
"09/03/12 07:33:30","182.8763","0.0","214.09","0","60.0","19"
"09/03/12 07:58:29","182.8776","12.1","214.28","49","60.03","22"
"09/03/12 08:03:30","182.8783","10.9","213.2","42","60.0","22"
"09/03/12 08:08:29","182.8788","0.0","213.02","0","60.0","22"
"09/03/12 08:13:29","182.8797","13.4","213.72","21","60.0","22"
"09/03/12 08:18:29","182.8812","15.1","213.17","10","60.0","23"
"09/03/12 08:23:29","182.8826","31.9","213.85","160","60.0","23"
"09/03/12 08:28:29","182.8845","32.2","213.68","209","60.0","24"
"09/03/12 08:33:29","182.8876","40.6","213.53","310","60.03","24"
"09/03/12 08:38:29","182.8897","33.7","213.07","104","60.0","25"
"09/03/12 08:43:29","182.8928","68.2","214.18","344","60.03","25"
"09/03/12 08:48:29","182.8978","76.2","214.0","379","60.0","26"
"09/03/12 08:53:29","182.903","46.8","213.29","164","60.03","27"
"09/03/12 08:58:29","182.9056","56.1","214.25","354","60.03","28"
"09/03/12 09:03:29","182.9099","67.2","214.79","398","60.03","28"
"09/03/12 09:08:28","182.9133","39.2","213.93","274","60.0","29"
"09/03/12 09:13:30","182.9155","16.0","212.68","189","60.0","29"
"09/03/12 09:18:30","182.9177","47.2","213.49","173","60.0","28"
"09/03/12 09:23:29","182.92","26.5","213.33","200","60.0","28"
"09/03/12 09:28:30","182.9221","37.9","213.61","146","60.0","28"
"09/03/12 09:33:30","182.9253","46.0","213.03","261","60.0","29"
"09/03/12 09:38:30","182.9278","37.0","213.77","158","60.0","29"
"09/03/12 09:43:29","182.9314","41.5","213.62","412","60.0","29"
"09/03/12 09:48:29","182.9345","38.4","212.91","275","60.03","29"
"09/03/12 09:53:29","182.9368","14.1","212.8","155","60.0","30"
"09/03/12 09:58:29","182.9387","31.4","213.26","255","60.03","30"
"09/03/12 10:03:30","182.9405","21.6","213.35","239","60.0","30"
"09/03/12 10:08:30","182.9421","18.5","212.88","18","60.0","30"
"09/03/12 10:13:30","182.9435","11.8","212.81","17","60.03","30"
"09/03/12 10:18:30","182.9451","27.8","212.85","240","60.0","29"
"09/03/12 10:23:29","182.9467","23.5","213.27","238","60.0","29"
"09/03/12 10:28:30","182.949","25.1","213.63","169","60.03","30"
"09/03/12 10:33:30","182.9511","26.7","213.5","329","60.0","30"
"09/03/12 10:38:30","182.9533","34.5","214.38","183","60.0","30"
"09/03/12 10:43:29","182.9557","41.8","213.92","279","60.0","30"
"09/03/12 10:48:29","182.9589","52.0","214.4","367","60.03","29"
"09/03/12 10:53:30","182.9628","44.2","215.64","405","60.03","29"
"09/03/12 10:58:30","182.9672","61.1","215.35","228","60.03","29"
"09/03/12 11:03:29","182.9734","104.3","217.65","496","60.0","30"
"09/03/12 11:08:30","182.9828","104.1","216.79","492","60.03","31"
"09/03/12 11:13:29","182.9912","88.3","216.19","426","60.0","31"
"09/03/12 11:18:30","182.9976","52.1","215.09","323","60.03","31"
"09/03/12 11:23:30","183.0014","53.7","214.96","85","60.03","31"
"09/03/12 11:28:30","183.0043","24.5","214.84","248","60.0","31"
"09/03/12 11:33:30","183.0069","47.8","214.14","287","60.03","31"
"09/03/12 11:38:29","183.0109","56.6","215.0","259","60.0","30"
"09/03/12 11:43:29","183.0141","44.1","215.26","382","60.03","30"
"09/03/12 11:48:31","183.0182","46.5","214.24","381","60.0","30"
"09/03/12 11:53:30","183.0222","52.8","214.97","319","60.03","30"
"09/03/12 11:58:29","183.0262","38.3","214.6","236","60.0","30"
"09/03/12 12:03:30","183.0294","39.9","214.84","147","60.07","30"
"09/03/12 12:08:29","183.0333","46.0","214.35","368","60.07","30"
"09/03/12 12:13:29","183.0365","44.1","213.61","318","60.0","30"
"09/03/12 12:18:29","183.0424","92.8","215.29","448","60.03","30"
"09/03/12 12:23:29","183.0495","61.8","214.32","316","60.03","30"
"09/03/12 12:28:29","183.055","80.5","214.38","398","60.0","31"
"09/03/12 12:33:30","183.0595","49.8","214.03","389","60.0","30"
"09/03/12 12:38:29","183.0654","159.1","217.76","721","60.03","30"
"09/03/12 12:43:30","183.0774","137.0","216.74","634","60.03","32"
"09/03/12 12:48:30","183.0866","161.7","217.2","738","60.03","32"
"09/03/12 12:53:30","183.0969","91.9","215.4","451","60.03","32"
"09/03/12 12:58:29","183.1063","38.5","213.9","357","60.07","33"
"09/03/12 13:03:30","183.1142","165.7","216.65","759","60.0","34"
"09/03/12 13:08:30","183.1258","168.9","217.51","773","60.03","35"
"09/03/12 13:13:30","183.1371","171.4","216.77","782","60.03","35"
"09/03/12 13:18:29","183.1466","153.0","216.85","706","60.03","35"
"09/03/12 13:23:29","183.1591","164.2","216.4","754","60.03","36"
"09/03/12 13:28:30","183.1714","153.7","215.76","705","60.03","36"
"09/03/12 13:33:29","183.1835","148.8","215.81","680","60.0","36"
"09/03/12 13:38:29","183.1948","134.5","215.94","626","60.03","36"
"09/03/12 13:43:29","183.2063","150.7","216.38","685","60.03","37"
"09/03/12 13:48:29","183.2182","156.4","216.25","717","60.03","37"
"09/03/12 13:53:29","183.23","148.4","216.03","680","60.0","37"
"09/03/12 13:58:30","183.2419","152.2","217.42","696","60.03","37"
"09/03/12 14:03:30","183.2536","147.7","216.73","679","60.0","38"
"09/03/12 14:08:29","183.265","145.0","216.87","665","60.03","38"
"09/03/12 14:13:31","183.2763","143.2","216.74","664","60.03","38"
"09/03/12 14:18:30","183.2874","143.2","216.46","659","60.0","39"
"09/03/12 14:23:30","183.298","101.0","215.97","482","60.03","39"
"09/03/12 14:28:30","183.305","78.3","215.28","386","60.03","38"
"09/03/12 14:33:29","183.3113","75.4","214.36","374","60.0","36"
"09/03/12 14:38:30","183.3188","116.1","215.4","550","60.03","36"
"09/03/12 14:43:30","183.3247","49.1","213.14","364","60.03","36"
"09/03/12 14:48:29","183.3292","71.8","214.12","361","60.03","35"
"09/03/12 14:53:29","183.3339","48.5","213.66","359","60.03","35"
"09/03/12 14:58:29","183.3372","47.7","212.98","270","60.03","34"
"09/03/12 15:03:29","183.3406","41.8","212.93","249","60.0","33"
"09/03/12 15:08:30","183.3447","87.3","214.82","424","60.0","33"
"09/03/12 15:13:30","183.3512","44.7","213.24","262","60.0","33"
"09/03/12 15:18:29","183.3557","125.9","215.02","595","60.0","33"
"09/03/12 15:23:29","183.3648","125.8","215.54","589","60.0","34"
"09/03/12 15:28:30","183.3741","115.5","214.84","542","60.0","35"
"09/03/12 15:33:30","183.3819","114.0","214.21","541","60.03","35"
"09/03/12 15:38:30","183.3903","106.1","213.93","506","60.03","35"
"09/03/12 15:43:30","183.3987","105.8","214.39","502","60.0","35"
"09/03/12 15:48:29","183.4067","101.9","214.59","488","60.0","35"
"09/03/12 15:53:30","183.4144","98.3","214.63","474","60.0","36"
"09/03/12 15:58:29","183.422","96.0","214.23","462","60.03","36"
"09/03/12 16:03:30","183.4293","93.4","213.5","452","60.03","36"
"09/03/12 16:08:29","183.4365","90.3","213.19","438","60.03","35"
"09/03/12 16:13:29","183.4434","87.5","212.88","430","60.03","35"
"09/03/12 16:18:29","183.45","83.7","212.84","411","60.03","35"
"09/03/12 16:23:29","183.4564","80.6","212.46","400","60.0","36"
"09/03/12 16:28:29","183.4625","77.3","212.97","387","60.03","35"
"09/03/12 16:33:29","183.4684","73.9","212.47","368","60.0","35"
"09/03/12 16:38:30","183.474","70.7","212.9","353","60.0","35"
"09/03/12 16:43:29","183.4793","66.5","213.51","336","60.03","35"
"09/03/12 16:48:29","183.4844","63.7","212.9","324","60.0","34"
"09/03/12 16:53:29","183.4891","50.2","213.25","375","60.03","34"
"09/03/12 16:58:29","183.4931","47.5","213.26","267","60.03","34"
"09/03/12 17:03:29","183.497","57.0","213.08","121","60.0","34"
"09/03/12 17:08:30","183.5009","52.4","213.48","428","60.03","34"
"09/03/12 17:13:30","183.5045","40.4","213.26","198","60.0","34"
"09/03/12 17:18:30","183.5079","36.6","212.94","131","60.03","34"
"09/03/12 17:23:30","183.511","43.2","213.05","272","60.0","34"
"09/03/12 17:28:30","183.5138","39.6","212.53","295","60.0","33"
"09/03/12 17:33:29","183.5163","28.3","212.83","89","60.03","33"
"09/03/12 17:38:29","183.5186","28.1","213.21","248","60.0","33"
"09/03/12 17:43:30","183.5206","32.8","213.16","207","60.0","33"
"09/03/12 17:48:30","183.5224","27.0","212.71","72","60.03","33"
"09/03/12 17:53:31","183.5238","10.4","212.64","22","60.0","32"
"09/03/12 17:58:29","183.5251","12.7","213.1","16","60.07","32"
"09/03/12 18:03:30","183.5261","8.2","212.29","234","60.0","32"
"09/03/12 18:08:29","183.527","0.0","212.25","223","60.03","32"
"09/03/12 18:13:31","183.5276","11.2","212.11","70","60.03","32"
"09/03/12 18:18:29","183.5281","6.8","212.5","135","60.03","32"
"09/03/12 18:23:29","183.5284","0.0","212.47","0","60.03","31"
"09/03/12 18:28:29","183.5287","0.0","212.0","0","60.03","31"
"09/04/12 06:53:30","183.529","0.0","213.4","0","60.03","18"
"09/04/12 06:58:30","183.5294","0.0","213.85","0","60.07","18"
"09/04/12 07:03:29","183.53","0.0","213.78","0","60.03","18"
"09/04/12 07:08:30","183.5307","10.3","213.56","0","60.03","18"
"09/04/12 07:13:31","183.5317","16.8","214.06","5","60.03","19"
"09/04/12 07:18:30","183.5329","16.2","214.25","8","60.03","19"
"09/04/12 07:23:29","183.5342","22.1","213.81","27","60.03","20"
"09/04/12 07:28:30","183.5359","14.4","214.26","261","60.03","20"
"09/04/12 07:33:30","183.5378","15.0","213.97","20","60.03","20"
"09/04/12 07:38:31","183.5399","32.6","214.27","233","60.0","20"
"09/04/12 07:43:31","183.5422","36.2","213.54","204","60.03","21"
"09/04/12 07:48:30","183.5449","41.5","213.91","181","60.03","22"
"09/04/12 07:53:30","183.5479","37.9","212.47","349","60.0","23"
"09/04/12 07:58:31","183.5512","45.2","213.2","304","60.0","24"
"09/04/12 08:03:31","183.5547","43.2","214.31","328","60.07","24"
"09/04/12 08:08:30","183.5586","54.0","212.64","367","60.03","25"
"09/04/12 08:13:29","183.5626","51.6","214.6","146","60.0","26"
"09/04/12 08:18:29","183.5667","51.6","214.67","154","60.03","26"
"09/04/12 08:23:29","183.5706","57.2","214.62","129","60.03","27"
"09/04/12 08:28:30","183.5754","67.2","215.4","338","60.0","27"
"09/04/12 08:33:31","183.5807","70.6","215.26","351","60.0","28"
"09/04/12 08:38:30","183.5863","74.1","214.96","367","60.03","28"
"09/04/12 08:43:29","183.5922","77.7","215.13","381","60.0","29"
"09/04/12 08:48:30","183.5983","80.9","215.29","399","60.03","29"
"09/04/12 08:53:31","183.6047","84.1","214.99","413","60.03","30"
"09/04/12 08:58:29","183.6114","87.5","215.37","426","60.0","31"
"09/04/12 09:03:30","183.6183","89.8","215.84","436","60.03","31"
"09/04/12 09:08:30","183.6254","92.9","215.44","450","60.03","32"
"09/04/12 09:13:30","183.6327","96.1","216.36","461","60.03","32"
"09/04/12 09:18:31","183.6404","98.3","215.55","474","60.03","33"
"09/04/12 09:23:30","183.648","100.9","215.47","482","60.0","34"
"09/04/12 09:28:31","183.656","103.2","214.72","492","60.03","35"
"09/04/12 09:33:29","183.664","105.0","215.14","502","60.0","36"
"09/04/12 09:38:29","183.6723","106.9","215.7","504","60.03","37"
"09/04/12 09:43:30","183.6807","109.1","215.36","511","60.0","37"
"09/04/12 09:48:31","183.6893","111.2","215.2","525","60.03","38"
"09/04/12 09:53:29","183.6979","112.8","215.95","533","60.03","39"
"09/04/12 09:58:30","183.7068","114.7","213.86","547","60.0","40"
"09/04/12 10:03:30","183.7159","117.7","214.66","556","60.03","40"
"09/04/12 10:08:30","183.7253","120.7","214.41","572","60.03","40"
"09/04/12 10:13:30","183.7347","123.8","216.0","576","60.0","40"
"09/04/12 10:18:30","183.7445","126.3","216.38","591","60.03","40"
"09/04/12 10:23:31","183.7545","128.2","216.23","596","60.0","40"
"09/04/12 10:28:30","183.7645","129.8","216.6","605","60.03","40"
"09/04/12 10:33:30","183.7747","132.1","216.25","613","60.03","40"
"09/04/12 10:38:31","183.7851","132.6","215.46","617","60.03","40"
"09/04/12 10:43:30","183.7954","133.4","215.78","620","60.03","40"
"09/04/12 10:48:29","183.8058","134.3","216.47","623","60.03","41"
"09/04/12 10:53:29","183.8162","135.2","216.87","629","60.03","41"
"09/04/12 10:58:30","183.8269","136.8","216.91","629","60.03","42"
"09/04/12 11:03:29","183.8375","137.9","217.77","635","60.03","42"
"09/04/12 11:08:30","183.8484","140.1","217.58","646","60.03","43"
"09/04/12 11:13:30","183.8593","140.7","217.26","651","60.03","43"
"09/04/12 11:18:30","183.8704","142.3","218.24","653","60.03","43"
"09/04/12 11:23:30","183.8815","142.4","216.53","657","60.03","43"
"09/04/12 11:28:30","183.8927","144.6","216.31","673","60.03","43"
"09/04/12 11:33:31","183.9039","144.4","216.35","663","59.96","44"
"09/04/12 11:38:30","183.9152","144.2","217.09","665","60.0","44"
"09/04/12 11:43:30","183.9265","145.9","216.72","672","60.03","44"
"09/04/12 11:48:30","183.9379","147.0","217.24","674","60.03","45"
"09/04/12 11:53:30","183.9494","148.6","216.7","681","60.03","45"
"09/04/12 11:58:29","183.9609","147.8","217.12","681","60.03","45"
"09/04/12 12:03:30","183.9725","149.2","216.49","686","60.03","45"
"09/04/12 12:08:30","183.9841","148.7","215.93","688","60.03","45"
"09/04/12 12:13:29","183.9957","149.3","216.85","689","60.03","45"
"09/04/12 12:18:31","184.0075","151.0","216.99","692","60.0","44"
"09/04/12 12:23:31","184.0192","149.9","217.34","685","60.03","45"
"09/04/12 12:28:31","184.0309","150.9","217.1","689","60.0","44"
"09/04/12 12:33:29","184.0426","150.9","217.3","693","60.03","44"
"09/04/12 12:38:30","184.0544","151.4","217.54","696","60.03","44"
"09/04/12 12:43:30","184.0663","152.0","216.02","696","60.0","44"
"09/04/12 12:48:31","184.0779","162.2","215.46","748","60.03","45"
"09/04/12 12:53:29","184.0875","109.9","215.01","520","60.0","43"
"09/04/12 12:58:30","184.0965","94.9","214.69","459","60.07","43"
"09/04/12 13:03:31","184.107","149.1","216.97","685","60.03","43"
"09/04/12 13:08:31","184.1176","124.9","216.55","582","60.03","43"
"09/04/12 13:13:30","184.1298","159.8","217.17","728","60.0","43"
"09/04/12 13:18:30","184.1418","151.1","216.8","692","60.0","43"
"09/04/12 13:23:30","184.1535","150.3","216.67","691","60.03","43"
"09/04/12 13:28:29","184.1652","147.3","216.67","680","60.03","43"
"09/04/12 13:33:30","184.1766","145.6","216.87","669","60.0","43"
"09/04/12 13:38:30","184.1879","143.4","216.38","661","60.03","44"
"09/04/12 13:43:30","184.199","142.5","216.16","657","60.0","44"
"09/04/12 13:48:31","184.2101","141.1","216.03","656","60.0","44"
"09/04/12 13:53:31","184.221","139.1","216.65","646","60.03","44"
"09/04/12 13:58:30","184.2318","139.5","216.97","648","60.03","44"
"09/04/12 14:03:30","184.2426","138.1","217.12","637","60.03","44"
"09/04/12 14:08:30","184.2534","137.1","216.63","632","60.03","44"
"09/04/12 14:13:31","184.264","135.4","216.54","622","60.03","44"
"09/04/12 14:18:31","184.2745","134.3","216.99","619","60.03","43"
"09/04/12 14:23:31","184.2849","132.6","216.39","613","60.0","43"
"09/04/12 14:28:31","184.2952","131.8","216.06","612","60.03","43"
"09/04/12 14:33:31","184.3054","130.3","215.65","607","60.0","43"
"09/04/12 14:38:29","184.3154","129.3","216.09","600","60.0","43"
"09/04/12 14:43:31","184.3255","127.2","215.87","594","60.0","43"
"09/04/12 14:48:29","184.3352","125.5","216.03","583","60.0","42"
"09/04/12 14:53:30","184.3449","123.3","216.26","575","60.0","42"
"09/04/12 14:58:31","184.3545","121.5","216.23","570","60.03","41"
"09/04/12 15:03:30","184.3638","119.3","215.71","561","60.03","41"
"09/04/12 15:08:31","184.3731","117.0","215.61","552","60.03","41"
"09/04/12 15:13:31","184.3821","115.6","215.63","543","60.03","41"
"09/04/12 15:18:29","184.391","112.9","215.59","533","60.03","40"
"09/04/12 15:23:29","184.3997","111.0","215.32","525","60.0","40"
"09/04/12 15:28:30","184.4082","108.5","215.76","515","60.03","39"
"09/04/12 15:33:31","184.4165","105.7","214.76","504","60.0","39"
"09/04/12 15:38:31","184.4247","103.2","214.79","495","60.0","39"
"09/04/12 15:43:30","184.4326","101.1","215.5","484","60.03","38"
"09/04/12 15:48:30","184.4404","98.2","215.17","474","60.0","38"
"09/04/12 15:53:30","184.4479","95.7","215.02","461","60.0","38"
"09/04/12 15:58:30","184.4542","40.8","214.61","130","60.03","37"
"09/04/12 16:03:31","184.4614","92.7","216.06","445","60.0","37"
"09/04/12 16:08:29","184.4684","87.9","215.59","427","60.03","37"
"09/04/12 16:13:31","184.4733","87.4","214.91","424","60.03","36"
"09/04/12 16:18:31","184.4798","81.6","214.53","399","60.0","36"
"09/04/12 16:23:29","184.486","77.8","214.85","384","60.0","35"
"09/04/12 16:28:29","184.4919","73.5","214.36","362","60.03","35"
"09/04/12 16:33:31","184.4974","70.6","214.73","354","60.03","34"
"09/04/12 16:38:29","184.5028","67.2","214.68","335","60.0","34"
"09/04/12 16:43:31","184.5078","63.2","214.19","322","60.0","33"
"09/04/12 16:48:31","184.5126","40.8","214.02","372","60.03","33"
"09/04/12 16:53:31","184.5164","47.5","213.73","121","60.03","33"
"09/04/12 16:58:30","184.5203","57.3","214.77","333","60.03","33"
"09/04/12 17:03:30","184.5242","42.2","214.32","373","60.03","32"
"09/04/12 17:08:31","184.528","51.4","214.26","214","60.03","32"
"09/04/12 17:13:31","184.5314","36.6","214.55","112","60.0","32"
"09/04/12 17:18:30","184.5346","33.5","213.93","87","60.0","31"
"09/04/12 17:23:29","184.5375","31.3","213.23","121","60.0","31"
"09/04/12 17:28:29","184.5401","28.7","213.09","70","60.03","30"
"09/04/12 17:33:29","184.5425","33.3","212.83","207","60.0","30"
"09/04/12 17:38:30","184.5446","21.5","212.6","38","60.0","29"
"09/04/12 17:43:31","184.5461","15.3","213.3","39","60.0","29"
"09/04/12 17:48:30","184.5475","6.6","212.37","138","60.07","29"
"09/04/12 17:53:31","184.5479","0.0","212.04","0","60.03","28"
"09/05/12 07:53:32","184.5482","0.0","212.63","0","60.03","21"
"09/05/12 07:58:30","184.5485","0.0","212.91","148","60.0","22"
"09/05/12 08:03:31","184.5489","13.7","212.24","190","60.07","22"